When you browse on this site, cookies collect data to enhance your experience and personalize the content and advertising you see.
Visit our Privacy Policy to learn more. By continuing to use the site, you agree to this use of cookies and data.
  • In Hungary
  • List of Countries
  • For 7 days
  • Water Temperature
  • Satellite Maps
  • Weather Map
  • News
  • Weather Widgets
  • user-avatar
    Login

    Hourly Weather Rokicie

    Today, 16 January, Wednesday

    Time Temperature Precipitation Wind Pressure Humidity
    00:00 +3°C° 0.1 mm 6 mps 747 mmHg 88%
    01:00 +4°C° 0 mm 4 mps 747 mmHg 90%
    02:00 +4°C° 0.6 mm 4 mps 748 mmHg 91%
    03:00 +4°C° 0.6 mm 4 mps 748 mmHg 93%
    04:00 +4°C° 0.6 mm 4 mps 748 mmHg 95%
    05:00 +3°C° 0.3 mm 5 mps 748 mmHg 92%
    06:00 +4°C° 0.3 mm 6 mps 748 mmHg 89%
    07:00 +4°C° 0.3 mm 7 mps 748 mmHg 87%
    08:00 +4°C° 0 mm 6 mps 748 mmHg 86%
    09:00 +4°C° 0 mm 6 mps 748 mmHg 85%
    10:00 +4°C° 0 mm 6 mps 748 mmHg 84%
    11:00 +4°C° 0 mm 6 mps 748 mmHg 84%
    12:00 +4°C° 0 mm 6 mps 748 mmHg 84%
    13:00 +4°C° 0 mm 6 mps 748 mmHg 85%
    14:00 +4°C° 0 mm 6 mps 748 mmHg 85%
    15:00 +4°C° 0 mm 6 mps 748 mmHg 85%
    16:00 +4°C° 0 mm 6 mps 747 mmHg 86%
    17:00 +4°C° 0 mm 6 mps 747 mmHg 86%
    18:00 +4°C° 0 mm 6 mps 747 mmHg 85%
    19:00 +4°C° 0 mm 6 mps 746 mmHg 85%
    20:00 +4°C° 0.1 mm 6 mps 746 mmHg 84%
    21:00 +3°C° 0.1 mm 7 mps 745 mmHg 84%
    22:00 +3°C° 0.1 mm 7 mps 745 mmHg 83%
    23:00 +3°C° 0.2 mm 7 mps 744 mmHg 82%

    Tomorrow, 17 January, Thursday

    Time Temperature Precipitation Wind Pressure Humidity
    00:00 +3°C° 0.2 mm 7 mps 744 mmHg 82%
    01:00 +2°C° 0.2 mm 7 mps 743 mmHg 82%
    02:00 +2°C° 0.3 mm 7 mps 742 mmHg 80%
    03:00 +2°C° 0.3 mm 7 mps 742 mmHg 79%
    04:00 +1°C° 0.3 mm 8 mps 741 mmHg 77%
    05:00 +1°C° 0.3 mm 8 mps 741 mmHg 78%
    06:00 +2°C° 0.3 mm 8 mps 741 mmHg 79%
    07:00 +2°C° 0.3 mm 8 mps 741 mmHg 80%
    08:00 +2°C° 0 mm 8 mps 742 mmHg 79%
    09:00 +2°C° 0 mm 8 mps 742 mmHg 77%
    10:00 +2°C° 0 mm 8 mps 742 mmHg 75%
    11:00 +2°C° 0 mm 8 mps 742 mmHg 73%
    12:00 +2°C° 0 mm 8 mps 742 mmHg 71%
    13:00 +2°C° 0 mm 8 mps 742 mmHg 69%
    14:00 +2°C° 0.1 mm 8 mps 741 mmHg 70%
    15:00 +3°C° 0.1 mm 7 mps 741 mmHg 72%
    16:00 +3°C° 0.1 mm 7 mps 741 mmHg 73%
    17:00 +2°C° 0 mm 7 mps 741 mmHg 73%
    18:00 0°C° 0 mm 7 mps 742 mmHg 72%
    19:00 0°C° 0 mm 8 mps 742 mmHg 72%
    20:00 -1°C° 0 mm 7 mps 742 mmHg 70%
    21:00 -2°C° 0 mm 7 mps 743 mmHg 69%
    22:00 -2°C° 0 mm 7 mps 743 mmHg 68%
    23:00 -2°C° 0 mm 6 mps 744 mmHg 71%

    Day after tomorrow, 18 January, Friday

    Time Temperature Precipitation Wind Pressure Humidity
    00:00 -2°C° 0 mm 5 mps 744 mmHg 74%
    01:00 -2°C° 0 mm 5 mps 744 mmHg 77%
    02:00 -2°C° 0 mm 5 mps 745 mmHg 78%
    03:00 -2°C° 0 mm 5 mps 746 mmHg 80%
    04:00 -2°C° 0 mm 5 mps 747 mmHg 82%
    05:00 -3°C° 0.2 mm 6 mps 748 mmHg 83%
    06:00 -3°C° 0.2 mm 6 mps 750 mmHg 83%
    07:00 -3°C° 0.2 mm 6 mps 751 mmHg 84%
    08:00 -3°C° 0 mm 6 mps 752 mmHg 79%
    09:00 -2°C° 0 mm 5 mps 753 mmHg 73%
    10:00 -2°C° 0 mm 5 mps 754 mmHg 68%
    11:00 -1°C° 0 mm 5 mps 755 mmHg 66%
    12:00 -1°C° 0 mm 5 mps 756 mmHg 64%
    13:00 0°C° 0 mm 5 mps 756 mmHg 62%
    14:00 -1°C° 0 mm 4 mps 757 mmHg 67%
    15:00 -1°C° 0 mm 4 mps 757 mmHg 73%
    16:00 -1°C° 0 mm 3 mps 758 mmHg 78%
    17:00 -1°C° 0 mm 3 mps 758 mmHg 81%
    18:00 -2°C° 0 mm 3 mps 758 mmHg 84%
    19:00 -2°C° 0 mm 3 mps 758 mmHg 87%
    20:00 -2°C° 0 mm 3 mps 758 mmHg 85%
    21:00 -2°C° 0 mm 3 mps 758 mmHg 83%
    22:00 -2°C° 0 mm 3 mps 758 mmHg 81%
    23:00 -2°C° 0 mm 3 mps 759 mmHg 81%

    19 January, Saturday

    Time Temperature Precipitation Wind Pressure Humidity
    00:00 -2°C° 0 mm 3 mps 759 mmHg 82%
    01:00 -2°C° 0 mm 3 mps 759 mmHg 82%
    02:00 -2°C° 0 mm 3 mps 759 mmHg 84%
    03:00 -2°C° 0 mm 3 mps 759 mmHg 86%
    04:00 -1°C° 0 mm 3 mps 759 mmHg 87%
    05:00 -2°C° 0 mm 3 mps 759 mmHg 89%
    06:00 -2°C° 0 mm 2 mps 759 mmHg 90%
    07:00 -2°C° 0 mm 2 mps 759 mmHg 91%
    08:00 -2°C° 0 mm 2 mps 759 mmHg 89%
    09:00 -1°C° 0 mm 2 mps 759 mmHg 87%
    10:00 -1°C° 0 mm 2 mps 760 mmHg 84%
    11:00 +1°C° 0 mm 2 mps 760 mmHg 81%
    12:00 +1°C° 0 mm 2 mps 759 mmHg 77%
    13:00 +1°C° 0 mm 3 mps 759 mmHg 73%
    14:00 +1°C° 0 mm 2 mps 759 mmHg 77%
    15:00 +1°C° 0 mm 2 mps 759 mmHg 80%
    16:00 +1°C° 0 mm 1 mps 759 mmHg 83%
    17:00 +1°C° 0 mm 1 mps 759 mmHg 84%
    18:00 0°C° 0 mm 1 mps 759 mmHg 85%
    19:00 0°C° 0 mm 1 mps 759 mmHg 86%
    20:00 0°C° 0 mm 1 mps 759 mmHg 86%
    21:00 0°C° 0 mm 1 mps 759 mmHg 86%
    22:00 0°C° 0 mm 1 mps 760 mmHg 85%
    23:00 0°C° 0 mm 1 mps 760 mmHg 85%

    20 January, Sunday

    Time Temperature Precipitation Wind Pressure Humidity
    00:00 0°C° 0 mm 1 mps 760 mmHg 84%
    01:00 -1°C° 0 mm 1 mps 760 mmHg 84%
    02:00 -1°C° 0 mm 1 mps 760 mmHg 83%
    03:00 -1°C° 0 mm 1 mps 760 mmHg 83%
    04:00 -1°C° 0 mm 1 mps 760 mmHg 83%
    05:00 -1°C° 0 mm 1 mps 760 mmHg 83%
    06:00 -1°C° 0 mm 1 mps 760 mmHg 83%
    07:00 -1°C° 0 mm 1 mps 760 mmHg 84%
    08:00 -3°C° 0 mm 2 mps 760 mmHg 82%
    09:00 -2°C° 0 mm 2 mps 761 mmHg 81%
    10:00 -1°C° 0 mm 2 mps 761 mmHg 79%
    11:00 0°C° 0 mm 3 mps 761 mmHg 78%
    12:00 0°C° 0 mm 3 mps 761 mmHg 76%
    13:00 +1°C° 0 mm 3 mps 761 mmHg 75%
    14:00 0°C° 0 mm 3 mps 761 mmHg 77%
    15:00 -1°C° 0 mm 3 mps 762 mmHg 79%
    16:00 -2°C° 0 mm 2 mps 762 mmHg 81%
    17:00 -2°C° 0 mm 2 mps 762 mmHg 81%
    18:00 -3°C° 0 mm 2 mps 763 mmHg 80%
    19:00 -3°C° 0 mm 2 mps 763 mmHg 80%
    20:00 -3°C° 0 mm 2 mps 764 mmHg 78%
    21:00 -3°C° 0 mm 2 mps 764 mmHg 76%
    22:00 -2°C° 0 mm 1 mps 765 mmHg 74%
    23:00 -2°C° 0 mm 1 mps 765 mmHg 72%

    21 January, Monday

    Time Temperature Precipitation Wind Pressure Humidity
    00:00 -2°C° 0 mm 1 mps 766 mmHg 71%
    01:00 -2°C° 0 mm 1 mps 766 mmHg 70%
    02:00 -2°C° 0 mm 1 mps 766 mmHg 70%
    03:00 -2°C° 0 mm 1 mps 767 mmHg 70%
    04:00 -2°C° 0 mm 1 mps 767 mmHg 70%
    05:00 -2°C° 0 mm 1 mps 767 mmHg 70%
    06:00 -2°C° 0 mm 1 mps 767 mmHg 71%
    07:00 -2°C° 0 mm 1 mps 768 mmHg 71%
    08:00 -2°C° 0 mm 1 mps 768 mmHg 69%
    09:00 -1°C° 0 mm 1 mps 768 mmHg 67%
    10:00 -1°C° 0 mm 1 mps 769 mmHg 65%
    11:00 0°C° 0 mm 1 mps 769 mmHg 62%
    12:00 +1°C° 0 mm 1 mps 769 mmHg 60%
    13:00 -1°C° 0 mm 2 mps 769 mmHg 57%
    14:00 -1°C° 0 mm 2 mps 768 mmHg 60%
    15:00 0°C° 0 mm 1 mps 768 mmHg 64%
    16:00 -1°C° 0 mm 1 mps 768 mmHg 67%
    17:00 -3°C° 0 mm 2 mps 768 mmHg 69%
    18:00 -4°C° 0 mm 2 mps 768 mmHg 70%
    19:00 -4°C° 0 mm 2 mps 768 mmHg 72%
    20:00 -4°C° 0 mm 2 mps 768 mmHg 72%
    21:00 -4°C° 0 mm 2 mps 767 mmHg 72%
    22:00 -4°C° 0 mm 2 mps 767 mmHg 73%
    23:00 -5°C° 0 mm 2 mps 767 mmHg 73%
    Show more